Year,Month,Day,Hour,Minute,Value (Times are PST for temperature in C)
2015,08,12,00,00,24.10
2015,08,12,00,01,24.00
2015,08,12,00,02,24.00
2015,08,12,00,03,24.00
2015,08,12,00,04,24.00
2015,08,12,00,05,23.90
2015,08,12,00,06,23.90
2015,08,12,00,07,23.90
2015,08,12,00,08,23.90
2015,08,12,00,09,23.90
2015,08,12,00,10,23.90
2015,08,12,00,11,23.80
2015,08,12,00,12,23.80
2015,08,12,00,13,23.80
2015,08,12,00,14,23.80
2015,08,12,00,15,23.80
2015,08,12,00,16,23.80
2015,08,12,00,17,23.70
2015,08,12,00,18,23.70
2015,08,12,00,19,23.70
2015,08,12,00,20,23.70
2015,08,12,00,21,23.70
2015,08,12,00,22,23.60
2015,08,12,00,23,23.60
2015,08,12,00,24,23.60
2015,08,12,00,25,23.60
2015,08,12,00,26,23.60
2015,08,12,00,27,23.60
2015,08,12,00,28,23.50
2015,08,12,00,29,23.50
2015,08,12,00,30,23.50
2015,08,12,00,31,23.50
2015,08,12,00,32,23.50
2015,08,12,00,33,23.40
2015,08,12,00,34,23.40
2015,08,12,00,35,23.40
2015,08,12,00,36,23.30
2015,08,12,00,37,23.30
2015,08,12,00,38,23.30
2015,08,12,00,39,23.30
2015,08,12,00,40,23.30
2015,08,12,00,41,23.30
2015,08,12,00,42,23.30
2015,08,12,00,43,23.30
2015,08,12,00,44,23.30
2015,08,12,00,45,23.30
2015,08,12,00,46,23.30
2015,08,12,00,47,23.30
2015,08,12,00,48,23.30
2015,08,12,00,49,23.30
2015,08,12,00,50,23.30
2015,08,12,00,51,23.40
2015,08,12,00,52,23.40
2015,08,12,00,53,23.40
2015,08,12,00,54,23.40
2015,08,12,00,55,23.40
2015,08,12,00,56,23.40
2015,08,12,00,57,23.40
2015,08,12,00,58,23.40
2015,08,12,00,59,23.40
2015,08,12,01,00,23.40
2015,08,12,01,01,23.40
2015,08,12,01,02,23.40
2015,08,12,01,03,23.40
2015,08,12,01,04,23.40
2015,08,12,01,05,23.40
2015,08,12,01,06,23.40
2015,08,12,01,07,23.40
2015,08,12,01,08,23.40
2015,08,12,01,09,23.40
2015,08,12,01,10,23.40
2015,08,12,01,11,23.30
2015,08,12,01,12,23.30
2015,08,12,01,13,23.30
2015,08,12,01,14,23.30
2015,08,12,01,15,23.30
2015,08,12,01,16,23.20
2015,08,12,01,17,23.20
2015,08,12,01,18,23.20
2015,08,12,01,19,23.20
2015,08,12,01,20,23.20
2015,08,12,01,21,23.20
2015,08,12,01,22,23.20
2015,08,12,01,23,23.20
2015,08,12,01,24,23.20
2015,08,12,01,25,23.20
2015,08,12,01,26,23.20
2015,08,12,01,27,23.20
2015,08,12,01,28,23.20
2015,08,12,01,29,23.10
2015,08,12,01,30,23.10
2015,08,12,01,31,23.10
2015,08,12,01,32,23.10
2015,08,12,01,33,23.10
2015,08,12,01,34,23.10
2015,08,12,01,35,23.10
2015,08,12,01,36,23.10
2015,08,12,01,37,23.10
2015,08,12,01,38,23.10
2015,08,12,01,39,23.10
2015,08,12,01,40,23.10
2015,08,12,01,41,23.10
2015,08,12,01,42,23.10
2015,08,12,01,43,23.10
2015,08,12,01,44,23.10
2015,08,12,01,45,23.10
2015,08,12,01,46,23.20
2015,08,12,01,47,23.20
2015,08,12,01,48,23.20
2015,08,12,01,49,23.20
2015,08,12,01,50,23.20
2015,08,12,01,51,23.30
2015,08,12,01,52,23.30
2015,08,12,01,53,23.30
2015,08,12,01,54,23.40
2015,08,12,01,55,23.50
2015,08,12,01,56,23.60
2015,08,12,01,57,23.60
2015,08,12,01,58,23.70
2015,08,12,01,59,23.80
2015,08,12,02,00,23.80
2015,08,12,02,01,23.80
2015,08,12,02,02,23.90
2015,08,12,02,03,23.90
2015,08,12,02,04,23.90
2015,08,12,02,05,24.00
2015,08,12,02,06,24.00
2015,08,12,02,07,24.10
2015,08,12,02,08,24.10
2015,08,12,02,09,24.10
2015,08,12,02,10,24.10
2015,08,12,02,11,24.20
2015,08,12,02,12,24.20
2015,08,12,02,13,24.20
2015,08,12,02,14,24.20
2015,08,12,02,15,24.20
2015,08,12,02,16,24.20
2015,08,12,02,17,24.30
2015,08,12,02,18,24.30
2015,08,12,02,19,24.30
2015,08,12,02,20,24.30
2015,08,12,02,21,24.30
2015,08,12,02,22,24.30
2015,08,12,02,23,24.30
2015,08,12,02,24,24.30
2015,08,12,02,25,24.30
2015,08,12,02,26,24.30
2015,08,12,02,27,24.30
2015,08,12,02,28,24.30
2015,08,12,02,29,24.30
2015,08,12,02,30,24.30
2015,08,12,02,31,24.30
2015,08,12,02,32,24.20
2015,08,12,02,33,24.20
2015,08,12,02,34,24.20
2015,08,12,02,35,24.20
2015,08,12,02,36,24.20
2015,08,12,02,37,24.10
2015,08,12,02,38,24.10
2015,08,12,02,39,24.10
2015,08,12,02,40,24.10
2015,08,12,02,41,24.10
2015,08,12,02,42,24.00
2015,08,12,02,43,24.00
2015,08,12,02,44,24.00
2015,08,12,02,45,24.00
2015,08,12,02,46,23.90
2015,08,12,02,47,23.90
2015,08,12,02,48,23.90
2015,08,12,02,49,23.90
2015,08,12,02,50,23.90
2015,08,12,02,51,23.90
2015,08,12,02,52,23.90
2015,08,12,02,53,23.90
2015,08,12,02,54,23.90
2015,08,12,02,55,23.90
2015,08,12,02,56,23.90
2015,08,12,02,57,23.90
2015,08,12,02,58,23.90
2015,08,12,02,59,23.90
2015,08,12,03,00,23.80
2015,08,12,03,01,23.80
2015,08,12,03,02,23.80
2015,08,12,03,03,23.80
2015,08,12,03,04,23.80
2015,08,12,03,05,23.70
2015,08,12,03,06,23.70
2015,08,12,03,07,23.70
2015,08,12,03,08,23.60
2015,08,12,03,09,23.60
2015,08,12,03,10,23.50
2015,08,12,03,11,23.50
2015,08,12,03,12,23.40
2015,08,12,03,13,23.40
2015,08,12,03,14,23.30
2015,08,12,03,15,23.30
2015,08,12,03,16,23.30
2015,08,12,03,17,23.20
2015,08,12,03,18,23.20
2015,08,12,03,19,23.20
2015,08,12,03,20,23.10
2015,08,12,03,21,23.10
2015,08,12,03,22,23.10
2015,08,12,03,23,23.10
2015,08,12,03,24,23.00
2015,08,12,03,25,23.00
2015,08,12,03,26,23.00
2015,08,12,03,27,23.00
2015,08,12,03,28,22.90
2015,08,12,03,29,22.90
2015,08,12,03,30,22.90
2015,08,12,03,31,22.80
2015,08,12,03,32,22.80
2015,08,12,03,33,22.80
2015,08,12,03,34,22.70
2015,08,12,03,35,22.70
2015,08,12,03,36,22.60
2015,08,12,03,37,22.60
2015,08,12,03,38,22.60
2015,08,12,03,39,22.50
2015,08,12,03,40,22.50
2015,08,12,03,41,22.40
2015,08,12,03,42,22.40
2015,08,12,03,43,22.30
2015,08,12,03,44,22.30
2015,08,12,03,45,22.30
2015,08,12,03,46,22.20
2015,08,12,03,47,22.20
2015,08,12,03,48,22.10
2015,08,12,03,49,22.10
2015,08,12,03,50,22.10
2015,08,12,03,51,22.00
2015,08,12,03,52,22.00
2015,08,12,03,53,21.90
2015,08,12,03,54,21.90
2015,08,12,03,55,21.90
2015,08,12,03,56,21.90
2015,08,12,03,57,21.90
2015,08,12,03,58,21.90
2015,08,12,03,59,21.80
2015,08,12,04,00,21.80
2015,08,12,04,01,21.80
2015,08,12,04,02,21.80
2015,08,12,04,03,21.80
2015,08,12,04,04,21.80
2015,08,12,04,05,21.80
2015,08,12,04,06,21.70
2015,08,12,04,07,21.70
2015,08,12,04,08,21.80
2015,08,12,04,09,21.80
2015,08,12,04,10,21.80
2015,08,12,04,11,21.80
2015,08,12,04,12,21.80
2015,08,12,04,13,21.80
2015,08,12,04,14,21.70
2015,08,12,04,15,21.70
2015,08,12,04,16,21.70
2015,08,12,04,17,21.70
2015,08,12,04,18,21.70
2015,08,12,04,19,21.70
2015,08,12,04,20,21.70
2015,08,12,04,21,21.70
2015,08,12,04,22,21.70
2015,08,12,04,23,21.70
2015,08,12,04,24,21.70
2015,08,12,04,25,21.70
2015,08,12,04,26,21.70
2015,08,12,04,27,21.60
2015,08,12,04,28,21.60
2015,08,12,04,29,21.60
2015,08,12,04,30,21.60
2015,08,12,04,31,21.60
2015,08,12,04,32,21.60
2015,08,12,04,33,21.60
2015,08,12,04,34,21.60
2015,08,12,04,35,21.50
2015,08,12,04,36,21.50
2015,08,12,04,37,21.50
2015,08,12,04,38,21.40
2015,08,12,04,39,21.40
2015,08,12,04,40,21.40
2015,08,12,04,41,21.40
2015,08,12,04,42,21.40
2015,08,12,04,43,21.40
2015,08,12,04,44,21.30
2015,08,12,04,45,21.30
2015,08,12,04,46,21.30
2015,08,12,04,47,21.30
2015,08,12,04,48,21.30
2015,08,12,04,49,21.30
2015,08,12,04,50,21.30
2015,08,12,04,51,21.30
2015,08,12,04,52,21.30
2015,08,12,04,53,21.20
2015,08,12,04,54,21.20
2015,08,12,04,55,21.20
2015,08,12,04,56,21.20
2015,08,12,04,57,21.20
2015,08,12,04,58,21.20
2015,08,12,04,59,21.20
2015,08,12,05,00,21.20
2015,08,12,05,01,21.20
2015,08,12,05,02,21.20
2015,08,12,05,03,21.20
2015,08,12,05,04,21.10
2015,08,12,05,05,21.10
2015,08,12,05,06,21.10
2015,08,12,05,07,21.10
2015,08,12,05,08,21.00
2015,08,12,05,09,21.00
2015,08,12,05,10,20.90
2015,08,12,05,11,20.90
2015,08,12,05,12,20.80
2015,08,12,05,13,20.80
2015,08,12,05,14,20.70
2015,08,12,05,15,20.70
2015,08,12,05,16,20.70
2015,08,12,05,17,20.60
2015,08,12,05,18,20.60
2015,08,12,05,19,20.50
2015,08,12,05,20,20.50
2015,08,12,05,21,20.40
2015,08,12,05,22,20.40
2015,08,12,05,23,20.40
2015,08,12,05,24,20.30
2015,08,12,05,25,20.30
2015,08,12,05,26,20.30
2015,08,12,05,27,20.30
2015,08,12,05,28,20.30
2015,08,12,05,29,20.30
2015,08,12,05,30,20.30
2015,08,12,05,31,20.30
2015,08,12,05,32,20.30
2015,08,12,05,33,20.40
2015,08,12,05,34,20.40
2015,08,12,05,35,20.40
2015,08,12,05,36,20.40
2015,08,12,05,37,20.50
2015,08,12,05,38,20.50
2015,08,12,05,39,20.60
2015,08,12,05,40,20.60
2015,08,12,05,41,20.60
2015,08,12,05,42,20.70
2015,08,12,05,43,20.70
2015,08,12,05,44,20.70
2015,08,12,05,45,20.70
2015,08,12,05,46,20.80
2015,08,12,05,47,20.80
2015,08,12,05,48,20.80
2015,08,12,05,49,20.80
2015,08,12,05,50,20.80
2015,08,12,05,51,20.80
2015,08,12,05,52,20.80
2015,08,12,05,53,20.80
2015,08,12,05,54,20.80
2015,08,12,05,55,20.80
2015,08,12,05,56,20.80
2015,08,12,05,57,20.80
2015,08,12,05,58,20.80
2015,08,12,05,59,20.80
2015,08,12,06,00,20.70
2015,08,12,06,01,20.70
2015,08,12,06,02,20.70
2015,08,12,06,03,20.70
2015,08,12,06,04,20.60
2015,08,12,06,05,20.60
2015,08,12,06,06,20.60
2015,08,12,06,07,20.60
2015,08,12,06,08,20.60
2015,08,12,06,09,20.60
2015,08,12,06,10,20.60
2015,08,12,06,11,20.60
2015,08,12,06,12,20.60
2015,08,12,06,13,20.60
2015,08,12,06,14,20.60
2015,08,12,06,15,20.60
2015,08,12,06,16,20.60
2015,08,12,06,17,20.60
2015,08,12,06,18,20.60
2015,08,12,06,19,20.60
2015,08,12,06,20,20.60
2015,08,12,06,21,20.60
2015,08,12,06,22,20.60
2015,08,12,06,23,20.60
2015,08,12,06,24,20.60
2015,08,12,06,25,20.60
2015,08,12,06,26,20.60
2015,08,12,06,27,20.60
2015,08,12,06,28,20.50
2015,08,12,06,29,20.50
2015,08,12,06,30,20.50
2015,08,12,06,31,20.50
2015,08,12,06,32,20.40
2015,08,12,06,33,20.40
2015,08,12,06,34,20.40
2015,08,12,06,35,20.40
2015,08,12,06,36,20.40
2015,08,12,06,37,20.40
2015,08,12,06,38,20.40
2015,08,12,06,39,20.30
2015,08,12,06,40,20.30
2015,08,12,06,41,20.30
2015,08,12,06,42,20.30
2015,08,12,06,43,20.20
2015,08,12,06,44,20.20
2015,08,12,06,45,20.20
2015,08,12,06,46,20.10
2015,08,12,06,47,20.10
2015,08,12,06,48,20.10
2015,08,12,06,49,20.00
2015,08,12,06,50,20.00
2015,08,12,06,51,20.00
2015,08,12,06,52,20.00
2015,08,12,06,53,20.00
2015,08,12,06,54,20.00
2015,08,12,06,55,20.00
2015,08,12,06,56,20.00
2015,08,12,06,57,20.00
2015,08,12,06,58,20.00
2015,08,12,06,59,20.00
2015,08,12,07,00,20.00
2015,08,12,07,01,20.10
2015,08,12,07,02,20.10
2015,08,12,07,03,20.10
2015,08,12,07,04,20.10
2015,08,12,07,05,20.10
2015,08,12,07,06,20.10
2015,08,12,07,07,20.10
2015,08,12,07,08,20.10
2015,08,12,07,09,20.10
2015,08,12,07,10,20.10
2015,08,12,07,11,20.10
2015,08,12,07,12,20.00
2015,08,12,07,13,20.00
2015,08,12,07,14,20.00
2015,08,12,07,15,20.00
2015,08,12,07,16,19.90
2015,08,12,07,17,19.90
2015,08,12,07,18,19.90
2015,08,12,07,19,19.90
2015,08,12,07,20,19.90
2015,08,12,07,21,19.90
2015,08,12,07,22,19.90
2015,08,12,07,23,19.90
2015,08,12,07,24,19.90
2015,08,12,07,25,19.90
2015,08,12,07,26,19.90
2015,08,12,07,27,19.90
2015,08,12,07,28,19.90
2015,08,12,07,29,19.90
2015,08,12,07,30,19.90
2015,08,12,07,31,19.90
2015,08,12,07,32,19.90
2015,08,12,07,33,19.90
2015,08,12,07,34,19.90
2015,08,12,07,35,19.90
2015,08,12,07,36,20.00
2015,08,12,07,37,20.00
2015,08,12,07,38,20.00
2015,08,12,07,39,20.00
2015,08,12,07,40,20.00
2015,08,12,07,41,20.00
2015,08,12,07,42,20.00
2015,08,12,07,43,20.00
2015,08,12,07,44,20.00
2015,08,12,07,45,20.10
2015,08,12,07,46,20.10
2015,08,12,07,47,20.10
2015,08,12,07,48,20.10
2015,08,12,07,49,20.10
2015,08,12,07,50,20.20
2015,08,12,07,51,20.20
2015,08,12,07,52,20.20
2015,08,12,07,53,20.20
2015,08,12,07,54,20.20
2015,08,12,07,55,20.20
2015,08,12,07,56,20.30
2015,08,12,07,57,20.30
2015,08,12,07,58,20.30
2015,08,12,07,59,20.30
2015,08,12,08,00,20.30
2015,08,12,08,01,20.30
2015,08,12,08,02,20.40
2015,08,12,08,03,20.40
2015,08,12,08,04,20.40
2015,08,12,08,05,20.40
2015,08,12,08,06,20.40
2015,08,12,08,07,20.40
2015,08,12,08,08,20.40
2015,08,12,08,09,20.40
2015,08,12,08,10,20.40
2015,08,12,08,11,20.50
2015,08,12,08,12,20.50
2015,08,12,08,13,20.50
2015,08,12,08,14,20.50
2015,08,12,08,15,20.50
2015,08,12,08,16,20.50
2015,08,12,08,17,20.50
2015,08,12,08,18,20.60
2015,08,12,08,19,20.60
2015,08,12,08,20,20.60
2015,08,12,08,21,20.60
2015,08,12,08,22,20.70
2015,08,12,08,23,20.70
2015,08,12,08,24,20.70
2015,08,12,08,25,20.80
2015,08,12,08,26,20.80
2015,08,12,08,27,20.80
2015,08,12,08,28,20.90
2015,08,12,08,29,20.90
2015,08,12,08,30,21.00
2015,08,12,08,31,21.00
2015,08,12,08,32,21.10
2015,08,12,08,33,21.10
2015,08,12,08,34,21.10
2015,08,12,08,35,21.20
2015,08,12,08,36,21.20
2015,08,12,08,37,21.20
2015,08,12,08,38,21.30
2015,08,12,08,39,21.30
2015,08,12,08,40,21.30
2015,08,12,08,41,21.40
2015,08,12,08,42,21.40
2015,08,12,08,43,21.50
2015,08,12,08,44,21.50
2015,08,12,08,45,21.60
2015,08,12,08,46,21.60
2015,08,12,08,47,21.60
2015,08,12,08,48,21.60
2015,08,12,08,49,21.70
2015,08,12,08,50,21.70
2015,08,12,08,51,21.70
2015,08,12,08,52,21.70
2015,08,12,08,53,21.70
2015,08,12,08,54,21.70
2015,08,12,08,55,21.70
2015,08,12,08,56,21.70
2015,08,12,08,57,21.70
2015,08,12,08,58,21.70
2015,08,12,08,59,21.70
2015,08,12,09,00,21.80
2015,08,12,09,01,21.80
2015,08,12,09,02,21.80
2015,08,12,09,03,21.90
2015,08,12,09,04,22.00
2015,08,12,09,05,22.00
2015,08,12,09,06,22.10
2015,08,12,09,07,22.20
2015,08,12,09,08,22.20
2015,08,12,09,09,22.30
2015,08,12,09,10,22.30
2015,08,12,09,11,22.30
2015,08,12,09,12,22.40
2015,08,12,09,13,22.40
2015,08,12,09,14,22.50
2015,08,12,09,15,22.60
2015,08,12,09,16,22.60
2015,08,12,09,17,22.60
2015,08,12,09,18,22.70
2015,08,12,09,19,22.70
2015,08,12,09,20,22.70
2015,08,12,09,21,22.80
2015,08,12,09,22,22.80
2015,08,12,09,23,22.90
2015,08,12,09,24,22.90
2015,08,12,09,25,22.90
2015,08,12,09,26,22.90
2015,08,12,09,27,23.00
2015,08,12,09,28,23.00
2015,08,12,09,29,23.00
2015,08,12,09,30,23.10
2015,08,12,09,31,23.10
2015,08,12,09,32,23.10
2015,08,12,09,33,23.20
2015,08,12,09,34,23.20
2015,08,12,09,35,23.20
2015,08,12,09,36,23.20
2015,08,12,09,37,23.20
2015,08,12,09,38,23.30
2015,08,12,09,39,23.30
2015,08,12,09,40,23.40
2015,08,12,09,41,23.50
2015,08,12,09,42,23.50
2015,08,12,09,43,23.60
2015,08,12,09,44,23.60
2015,08,12,09,45,23.70
2015,08,12,09,46,23.70
2015,08,12,09,47,23.80
2015,08,12,09,48,23.80
2015,08,12,09,49,23.80
2015,08,12,09,50,23.80
2015,08,12,09,51,23.90
2015,08,12,09,52,23.90
2015,08,12,09,53,23.90
2015,08,12,09,54,23.90
2015,08,12,09,55,23.90
2015,08,12,09,56,24.00
2015,08,12,09,57,24.00
2015,08,12,09,58,24.10
2015,08,12,09,59,24.20
2015,08,12,10,00,24.20
2015,08,12,10,01,24.30
2015,08,12,10,02,24.40
2015,08,12,10,03,24.50
2015,08,12,10,04,24.50
2015,08,12,10,05,24.60
2015,08,12,10,06,24.60
2015,08,12,10,07,24.60
2015,08,12,10,08,24.70
2015,08,12,10,09,24.80
2015,08,12,10,10,24.80
2015,08,12,10,11,24.80
2015,08,12,10,12,24.70
2015,08,12,10,13,24.70
2015,08,12,10,14,24.70
2015,08,12,10,15,24.70
2015,08,12,10,16,24.70
2015,08,12,10,17,24.80
2015,08,12,10,18,24.80
2015,08,12,10,19,24.80
2015,08,12,10,20,24.80
2015,08,12,10,21,24.80
2015,08,12,10,22,24.80
2015,08,12,10,23,24.80
2015,08,12,10,24,24.90
2015,08,12,10,25,24.90
2015,08,12,10,26,25.00
2015,08,12,10,27,25.00
2015,08,12,10,28,25.10
2015,08,12,10,29,25.10
2015,08,12,10,30,25.10
2015,08,12,10,31,25.10
2015,08,12,10,32,25.10
2015,08,12,10,33,25.10
2015,08,12,10,34,25.10
2015,08,12,10,35,25.20
2015,08,12,10,36,25.20
2015,08,12,10,37,25.20
2015,08,12,10,38,25.30
2015,08,12,10,39,25.30
2015,08,12,10,40,25.30
2015,08,12,10,41,25.40
2015,08,12,10,42,25.40
2015,08,12,10,43,25.50
2015,08,12,10,44,25.60
2015,08,12,10,45,25.60
2015,08,12,10,46,25.60
2015,08,12,10,47,25.60
2015,08,12,10,48,25.70
2015,08,12,10,49,25.70
2015,08,12,10,50,25.80
2015,08,12,10,51,25.80
2015,08,12,10,52,25.80
2015,08,12,10,53,25.80
2015,08,12,10,54,25.80
2015,08,12,10,55,25.80
2015,08,12,10,56,25.80
2015,08,12,10,57,25.70
2015,08,12,10,58,25.70
2015,08,12,10,59,25.70
2015,08,12,11,00,25.70
2015,08,12,11,01,25.70
2015,08,12,11,02,25.80
2015,08,12,11,03,25.80
2015,08,12,11,04,25.80
2015,08,12,11,05,25.80
2015,08,12,11,06,25.80
2015,08,12,11,07,25.70
2015,08,12,11,08,25.70
2015,08,12,11,09,25.70
2015,08,12,11,10,25.70
2015,08,12,11,11,25.80
2015,08,12,11,12,25.80
2015,08,12,11,13,25.80
2015,08,12,11,14,25.90
2015,08,12,11,15,26.00
2015,08,12,11,16,26.00
2015,08,12,11,17,26.10
2015,08,12,11,18,26.20
2015,08,12,11,19,26.30
2015,08,12,11,20,26.40
2015,08,12,11,21,26.40
2015,08,12,11,22,26.50
2015,08,12,11,23,26.60
2015,08,12,11,24,26.60
2015,08,12,11,25,26.70
2015,08,12,11,26,26.70
2015,08,12,11,27,26.70
2015,08,12,11,28,26.70
2015,08,12,11,29,26.70
2015,08,12,11,30,26.70
2015,08,12,11,31,26.70
2015,08,12,11,32,26.70
2015,08,12,11,33,26.70
2015,08,12,11,34,26.70
2015,08,12,11,35,26.70
2015,08,12,11,36,26.70
2015,08,12,11,37,26.60
2015,08,12,11,38,26.50
2015,08,12,11,39,26.40
2015,08,12,11,40,26.30
2015,08,12,11,41,26.30
2015,08,12,11,42,26.20
2015,08,12,11,43,26.20
2015,08,12,11,44,26.10
2015,08,12,11,45,26.10
2015,08,12,11,46,26.10
2015,08,12,11,47,26.10
2015,08,12,11,48,26.10
2015,08,12,11,49,26.00
2015,08,12,11,50,26.00
2015,08,12,11,51,25.90
2015,08,12,11,52,25.90
2015,08,12,11,53,25.80
2015,08,12,11,54,25.80
2015,08,12,11,55,25.70
2015,08,12,11,56,25.70
2015,08,12,11,57,25.60
2015,08,12,11,58,25.50
2015,08,12,11,59,25.40
2015,08,12,12,00,25.30
2015,08,12,12,01,25.20
2015,08,12,12,02,25.20
2015,08,12,12,03,25.10
2015,08,12,12,04,25.00
2015,08,12,12,05,24.90
2015,08,12,12,06,24.80
2015,08,12,12,07,24.80
2015,08,12,12,08,24.80
2015,08,12,12,09,24.70
2015,08,12,12,10,24.70
2015,08,12,12,11,24.70
2015,08,12,12,12,24.60
2015,08,12,12,13,24.60
2015,08,12,12,14,24.50
2015,08,12,12,15,24.50
2015,08,12,12,16,24.40
2015,08,12,12,17,24.30
2015,08,12,12,18,24.30
2015,08,12,12,19,24.20
2015,08,12,12,20,24.10
2015,08,12,12,21,24.10
2015,08,12,12,22,24.10
2015,08,12,12,23,24.00
2015,08,12,12,24,23.90
2015,08,12,12,25,23.90
2015,08,12,12,26,23.90
2015,08,12,12,27,23.90
2015,08,12,12,28,23.80
2015,08,12,12,29,23.80
2015,08,12,12,30,23.80
2015,08,12,12,31,23.90
2015,08,12,12,32,23.90
2015,08,12,12,33,24.00
2015,08,12,12,34,24.00
2015,08,12,12,35,24.00
2015,08,12,12,36,24.00
2015,08,12,12,37,24.00
2015,08,12,12,38,24.00
2015,08,12,12,39,23.90
2015,08,12,12,40,23.90
2015,08,12,12,41,23.80
2015,08,12,12,42,23.80
2015,08,12,12,43,23.80
2015,08,12,12,44,23.80
2015,08,12,12,45,23.80
2015,08,12,12,46,23.70
2015,08,12,12,47,23.70
2015,08,12,12,48,23.70
2015,08,12,12,49,23.70
2015,08,12,12,50,23.70
2015,08,12,12,51,23.70
2015,08,12,12,52,23.70
2015,08,12,12,53,23.70
2015,08,12,12,54,23.70
2015,08,12,12,55,23.70
2015,08,12,12,56,23.70
2015,08,12,12,57,23.70
2015,08,12,12,58,23.70
2015,08,12,12,59,23.70
2015,08,12,13,00,23.80
2015,08,12,13,01,23.80
2015,08,12,13,02,23.80
2015,08,12,13,03,23.80
2015,08,12,13,04,23.80
2015,08,12,13,05,23.90
2015,08,12,13,06,24.00
2015,08,12,13,07,24.00
2015,08,12,13,08,24.20
2015,08,12,13,09,24.30
2015,08,12,13,10,24.50
2015,08,12,13,11,24.70
2015,08,12,13,12,24.90
2015,08,12,13,13,25.10
2015,08,12,13,14,25.20
2015,08,12,13,15,25.40
2015,08,12,13,16,25.50
2015,08,12,13,17,25.70
2015,08,12,13,18,25.80
2015,08,12,13,19,25.90
2015,08,12,13,20,26.10
2015,08,12,13,21,26.20
2015,08,12,13,22,26.20
2015,08,12,13,23,26.30
2015,08,12,13,24,26.30
2015,08,12,13,25,26.40
2015,08,12,13,26,26.50
2015,08,12,13,27,26.60
2015,08,12,13,28,26.60
2015,08,12,13,29,26.70
2015,08,12,13,30,26.80
2015,08,12,13,31,26.80
2015,08,12,13,32,26.80
2015,08,12,13,33,26.70
2015,08,12,13,34,26.70
2015,08,12,13,35,26.60
2015,08,12,13,36,26.50
2015,08,12,13,37,26.40
2015,08,12,13,38,26.40
2015,08,12,13,39,26.30
2015,08,12,13,40,26.30
2015,08,12,13,41,26.30
2015,08,12,13,42,26.30
2015,08,12,13,43,26.40
2015,08,12,13,44,26.50
2015,08,12,13,45,26.50
2015,08,12,13,46,26.60
2015,08,12,13,47,26.70
2015,08,12,13,48,26.80
2015,08,12,13,49,26.90
2015,08,12,13,50,27.10
2015,08,12,13,51,27.30
2015,08,12,13,52,27.40
2015,08,12,13,53,27.60
2015,08,12,13,54,27.80
2015,08,12,13,55,28.00
2015,08,12,13,56,28.10
2015,08,12,13,57,28.30
2015,08,12,13,58,28.50
2015,08,12,13,59,28.60
2015,08,12,14,00,28.80
2015,08,12,14,01,28.90
2015,08,12,14,02,29.10
2015,08,12,14,03,29.20
2015,08,12,14,04,29.30
2015,08,12,14,05,29.30
2015,08,12,14,06,29.40
2015,08,12,14,07,29.50
2015,08,12,14,08,29.50
2015,08,12,14,09,29.60
2015,08,12,14,10,29.70
2015,08,12,14,11,29.70
2015,08,12,14,12,29.70
2015,08,12,14,13,29.70
2015,08,12,14,14,29.70
2015,08,12,14,15,29.70
2015,08,12,14,16,29.60
2015,08,12,14,17,29.60
2015,08,12,14,18,29.60
2015,08,12,14,19,29.60
2015,08,12,14,20,29.60
2015,08,12,14,21,29.60
2015,08,12,14,22,29.60
2015,08,12,14,23,29.60
2015,08,12,14,24,29.70
2015,08,12,14,25,29.80
2015,08,12,14,26,29.80
2015,08,12,14,27,29.80
2015,08,12,14,28,29.90
2015,08,12,14,29,29.90
2015,08,12,14,30,30.00
2015,08,12,14,31,30.00
2015,08,12,14,32,30.00
2015,08,12,14,33,29.90
2015,08,12,14,34,29.90
2015,08,12,14,35,29.70
2015,08,12,14,36,29.60
2015,08,12,14,37,29.40
2015,08,12,14,38,29.20
2015,08,12,14,39,29.10
2015,08,12,14,40,28.90
2015,08,12,14,41,28.80
2015,08,12,14,42,28.70
2015,08,12,14,43,28.60
2015,08,12,14,44,28.50
2015,08,12,14,45,28.50
2015,08,12,14,46,28.40
2015,08,12,14,47,28.40
2015,08,12,14,48,28.40
2015,08,12,14,49,28.40
2015,08,12,14,50,28.40
2015,08,12,14,51,28.40
2015,08,12,14,52,28.40
2015,08,12,14,53,28.40
2015,08,12,14,54,28.40
2015,08,12,14,55,28.30
2015,08,12,14,56,28.30
2015,08,12,14,57,28.30
2015,08,12,14,58,28.30
2015,08,12,14,59,28.40
2015,08,12,15,00,28.40
2015,08,12,15,01,28.30
2015,08,12,15,02,28.30
2015,08,12,15,03,28.30
2015,08,12,15,04,28.40
2015,08,12,15,05,28.40
2015,08,12,15,06,28.40
2015,08,12,15,07,28.50
2015,08,12,15,08,28.60
2015,08,12,15,09,28.70
2015,08,12,15,10,28.90
2015,08,12,15,11,29.00
2015,08,12,15,12,29.00
2015,08,12,15,13,29.00
2015,08,12,15,14,29.10
2015,08,12,15,15,29.10
2015,08,12,15,16,29.10
2015,08,12,15,17,29.10
2015,08,12,15,18,29.20
2015,08,12,15,19,29.20
2015,08,12,15,20,29.30
2015,08,12,15,21,29.20
2015,08,12,15,22,29.10
2015,08,12,15,23,29.00
2015,08,12,15,24,29.00
2015,08,12,15,25,28.90
2015,08,12,15,26,28.90
2015,08,12,15,27,28.80
2015,08,12,15,28,28.80
2015,08,12,15,29,28.70
2015,08,12,15,30,28.70
2015,08,12,15,31,28.60
2015,08,12,15,32,28.60
2015,08,12,15,33,28.60
2015,08,12,15,34,28.70
2015,08,12,15,35,28.70
2015,08,12,15,36,28.70
2015,08,12,15,37,28.70
2015,08,12,15,38,28.70
2015,08,12,15,39,28.70
2015,08,12,15,40,28.70
2015,08,12,15,41,28.70
2015,08,12,15,42,28.70
2015,08,12,15,43,28.70
2015,08,12,15,44,28.80
2015,08,12,15,45,28.80
2015,08,12,15,46,28.80
2015,08,12,15,47,28.70
2015,08,12,15,48,28.70
2015,08,12,15,49,28.60
2015,08,12,15,50,28.50
2015,08,12,15,51,28.40
2015,08,12,15,52,28.30
2015,08,12,15,53,28.20
2015,08,12,15,54,28.20
2015,08,12,15,55,28.10
2015,08,12,15,56,28.10
2015,08,12,15,57,28.10
2015,08,12,15,58,28.20
2015,08,12,15,59,28.20
2015,08,12,16,00,28.20
2015,08,12,16,01,28.30
2015,08,12,16,02,28.40
2015,08,12,16,03,28.50
2015,08,12,16,04,28.60
2015,08,12,16,05,28.70
2015,08,12,16,06,28.70
2015,08,12,16,07,28.80
2015,08,12,16,08,28.90
2015,08,12,16,09,28.90
2015,08,12,16,10,29.00
2015,08,12,16,11,29.10
2015,08,12,16,12,29.10
2015,08,12,16,13,29.20
2015,08,12,16,14,29.30
2015,08,12,16,15,29.30
2015,08,12,16,16,29.30
2015,08,12,16,17,29.30
2015,08,12,16,18,29.30
2015,08,12,16,19,29.40
2015,08,12,16,20,29.40
2015,08,12,16,21,29.40
2015,08,12,16,22,29.50
2015,08,12,16,23,29.50
2015,08,12,16,24,29.50
2015,08,12,16,25,29.50
2015,08,12,16,26,29.50
2015,08,12,16,27,29.40
2015,08,12,16,28,29.30
2015,08,12,16,29,29.20
2015,08,12,16,30,29.10
2015,08,12,16,31,29.00
2015,08,12,16,32,28.90
2015,08,12,16,33,28.90
2015,08,12,16,34,28.80
2015,08,12,16,35,28.70
2015,08,12,16,36,28.60
2015,08,12,16,37,28.60
2015,08,12,16,38,28.50
2015,08,12,16,39,28.40
2015,08,12,16,40,28.30
2015,08,12,16,41,28.30
2015,08,12,16,42,28.30
2015,08,12,16,43,28.20
2015,08,12,16,44,28.20
2015,08,12,16,45,28.20
2015,08,12,16,46,28.20
2015,08,12,16,47,28.20
2015,08,12,16,48,28.20
2015,08,12,16,49,28.20
2015,08,12,16,50,28.20
2015,08,12,16,51,28.20
2015,08,12,16,52,28.20
2015,08,12,16,53,28.10
2015,08,12,16,54,28.10
2015,08,12,16,55,28.10
2015,08,12,16,56,28.00
2015,08,12,16,57,28.00
2015,08,12,16,58,28.00
2015,08,12,16,59,28.00
2015,08,12,17,00,27.90
2015,08,12,17,01,27.90
2015,08,12,17,02,27.90
2015,08,12,17,03,27.90
2015,08,12,17,04,27.90
2015,08,12,17,05,27.80
2015,08,12,17,06,27.80
2015,08,12,17,07,27.90
2015,08,12,17,08,27.90
2015,08,12,17,09,27.90
2015,08,12,17,10,27.90
2015,08,12,17,11,28.00
2015,08,12,17,12,28.00
2015,08,12,17,13,28.10
2015,08,12,17,14,28.10
2015,08,12,17,15,28.20
2015,08,12,17,16,28.20
2015,08,12,17,17,28.20
2015,08,12,17,18,28.30
2015,08,12,17,19,28.30